Location: Riverside Cemetery
(38.3047°N, 99.7773°W)
Time: 16:19:32
(UTC+00:00)

Tsikada Rocket - Pass Details

Date: 19 September 2020
Orbit: 957 x 1010 km, 82.9° (Epoch: 21 October)

Event Time Altitude Azimuth Distance (km) Brightness Sun altitude
Rises 00:55:55 0° 354° (N) 3,648 7.1 -3.7°
Reaches altitude 10° 00:58:26 10° 357° (N) 2,696 6.4 -4.2°
Maximum altitude 01:04:36 75° 83° (E) 992 4.0 -5.4°
Drops below altitude 10° 01:10:45 10° 168° (SSE) 2,689 6.1 -6.6°
Sets 01:13:15 0° 170° (S) 3,636 6.8 -7.0°
